• Join FlightAware (Why Join?)
  • Login
  • US Flag GB Flag 
12:05 EST


 

Airport Tracker/Info


-or-


 

Live Flight TrackerFlight Track Log ✈ SWA127 ✈ 17-Apr-2013 ✈ KMCI - KHOU

Flight Track Log - Related Links

Times and Time Zones

All times are in EDT time to prevent confusion due to time zone crossing. See the SWA127 flight status page for this flight to view local times or setup timezone preferences in your user account.

Time Position Orientation Groundspeed Altitude Reporting Facility
EDT Latitude Longitude Course Direction KTS MPH feet Rate Location/Type
08:46 39.2833 -94.7000 90° East 146 168 2,000  Level Kansas City TRACON
08:47 39.2833 -94.6500 90° East 185 213 3,100 1,837 Climbing Kansas City TRACON
08:47 39.2706 -94.5839 104° East 223 257 5,000 2,667 Climbing Kansas City Center
08:48 39.2200 -94.5619 161° South 221 254 7,900 2,806 Climbing Kansas City Center
08:49 39.1558 -94.5761 190° South 255 293 10,800 2,975 Climbing Kansas City Center
08:50 39.0875 -94.6583 223° Southwest 300 345 13,900 3,246 Climbing Kansas City Center
08:51 39.0250 -94.7339 223° Southwest 320 368 17,400 3,344 Climbing Kansas City Center
08:52 38.9500 -94.8244 223° Southwest 328 377 20,700 2,736 Climbing Kansas City Center
08:53 38.8694 -94.8858 211° Southwest 354 407 23,100 2,129 Climbing Kansas City Center
08:54 38.7708 -94.9192 195° South 377 434 25,100 2,083 Climbing Kansas City Center
08:55 38.6506 -94.9594 195° South 399 459 27,300 2,033 Climbing Kansas City Center
08:56 38.5442 -94.9975 196° South 412 474 29,200 1,790 Climbing Kansas City Center
08:58 38.4358 -95.0358 195° South 421 484 31,000 1,728 Climbing Kansas City Center
08:59 38.3092 -95.0797 195° South 422 486 32,800 1,636 Climbing Kansas City Center
09:00 38.1972 -95.1169 195° South 428 493 34,300 1,525 Climbing Kansas City Center
09:01 38.0853 -95.1558 195° South 434 499 35,900 1,548 Climbing Kansas City Center
09:02 37.9553 -95.2008 195° South 434 499 37,500 1,033 Climbing Kansas City Center
09:03 37.8450 -95.2375 195° South 427 491 38,000 246 Climbing Kansas City Center
09:04 37.7272 -95.2414 181° South 421 484 38,000  Level Kansas City Center
09:05 37.6108 -95.2500 183° South 419 482 38,000  Level Kansas City Center
09:06 37.4931 -95.2542 182° South 420 483 38,000  Level Kansas City Center
09:07 37.3753 -95.2611 183° South 422 486 38,000  Level Kansas City Center
09:08 37.2333 -95.2681 182° South 423 487 38,000  Level Kansas City Center
09:09 37.1156 -95.2744 182° South 423 487 38,000  Level Kansas City Center
09:10 36.9961 -95.2797 182° South 426 490 38,000  Level Kansas City Center
09:11 36.8772 -95.2858 182° South 427 491 38,000  Level Kansas City Center
09:12 36.7583 -95.2914 182° South 425 489 38,000  Level Kansas City Center
09:13 36.6378 -95.2972 182° South 428 493 38,000  Level Kansas City Center
09:14 36.5258 -95.3017 182° South 427 491 38,000  Level Kansas City Center
09:15 36.4053 -95.3142 185° South 432 497 38,000  Level Kansas City Center
09:16 36.2731 -95.3764 201° Southwest 428 493 38,000  Level Kansas City Center
09:17 36.1631 -95.4292 201° Southwest 424 488 38,000  Level Kansas City Center
09:18 36.0578 -95.4789 201° Southwest 424 488 38,000  Level Kansas City Center
09:19 35.9464 -95.5317 201° Southwest 425 489 38,000  Level Kansas City Center
09:20 35.8367 -95.5822 200° South 424 488 38,000  Level Kansas City Center
09:21 35.7275 -95.6342 201° Southwest 419 482 38,000  Level Kansas City Center
09:22 35.6183 -95.6839 200° South 418 481 38,000  Level Kansas City Center
09:23 35.4911 -95.7464 202° Southwest 422 486 38,000  Level Fort Worth Center
09:24 35.3833 -95.7942 200° South 422 486 38,000  Level Fort Worth Center
09:25 35.2756 -95.8447 201° Southwest 422 486 38,000  Level Fort Worth Center
09:26 35.1553 -95.8975 200° South 422 486 38,000  Level Fort Worth Center
09:27 35.0514 -95.9450 201° Southwest 422 486 38,000  Level Fort Worth Center
09:28 34.9436 -95.9950 201° Southwest 422 486 38,000  Level Fort Worth Center
09:29 34.8356 -96.0425 200° South 417 480 38,000  Level Fort Worth Center
09:30 34.7297 -96.0922 201° Southwest 417 480 38,000  Level Fort Worth Center
09:31 34.6217 -96.1417 201° Southwest 417 480 38,000  Level Fort Worth Center
09:32 34.5117 -96.1914 200° South 417 480 38,000  Level Fort Worth Center
09:33 34.4017 -96.2406 200° South 417 480 38,000  Level Fort Worth Center
09:34 34.2936 -96.2872 200° South 417 480 38,000  Level Fort Worth Center
09:35 34.1856 -96.3389 202° Southwest 417 480 38,000  Level Fort Worth Center
09:36 34.0794 -96.3853 200° South 417 480 38,000  Level Fort Worth Center
09:37 33.9714 -96.4317 200° South 405 466 38,000  Level Fort Worth Center
09:38 33.8631 -96.4806 201° Southwest 418 481 38,000  Level Fort Worth Center
09:39 33.7528 -96.5292 200° South 424 488 38,000  Level Fort Worth Center
09:40 33.6383 -96.5778 199° South 430 495 38,000  Level Fort Worth Center
09:41 33.5281 -96.6286 201° Southwest 430 495 38,000  Level Fort Worth Center
09:42 33.4281 -96.6692 199° South 430 495 38,000  Level Fort Worth Center
09:43 33.3136 -96.7225 201° Southwest 430 495 38,000  Level Fort Worth Center
09:44 33.2011 -96.7706 200° South 424 488 38,000  Level Fort Worth Center
09:45 33.0886 -96.8158 199° South 431 496 38,000 -400 Level Fort Worth Center
09:46 32.9678 -96.8711 201° Southwest 431 496 37,200 -500 Descending Fort Worth Center
09:47 32.8511 -96.9039 193° South 426 490 37,000 -100 Descending Fort Worth Center
09:48 32.7258 -96.8947 176° South 432 497 37,000  Level Fort Worth Center
09:49 32.6028 -96.8881 177° South 442 509 37,000  Level Fort Worth Center
09:50 32.4794 -96.8814 177° South 447 514 37,000  Level Fort Worth Center
09:51 32.3561 -96.8722 176° South 442 509 37,000  Level Fort Worth Center
09:52 32.2350 -96.8681 178° South 442 509 37,000  Level Fort Worth Center
09:53 32.1244 -96.8589 176° South 442 509 37,000  Level Fort Worth Center
09:54 31.9908 -96.8550 179° South 456 525 37,000  Level Fort Worth Center
09:55 31.8508 -96.8458 177° South 461 531 37,000  Level Fort Worth Center
09:57 31.5675 -96.8147 175° South 482 555 37,000  Level Houston Center
09:58 31.4328 -96.7936 172° South 481 554 37,000  Level Houston Center
09:59 31.2967 -96.7719 172° South 484 557 37,000  Level Houston Center
10:01 31.1375 -96.7456 172° South 486 559 37,000 -871 Level Houston Center
10:02 31.0069 -96.7253 172° South 467 537 35,200 -2,565 Descending Houston Center
10:03 30.8781 -96.7053 172° South 460 529 31,700 -3,312 Descending Houston Center
10:04 30.7542 -96.6864 173° South 445 512 28,300 -3,312 Descending Houston Center
10:05 30.6389 -96.6675 172° South 419 482 24,800 -3,000 Descending Houston Center
10:06 30.5406 -96.6075 152° Southeast 410 472 22,100 -2,661 Descending Houston Center
10:07 30.4622 -96.5094 133° Southeast 411 473 19,300 -2,081 Descending Houston Center
10:08 30.4386 -96.3822 102° East 403 464 17,800 -1,694 Descending Houston Center
10:09 30.4422 -96.2606 88° East 382 440 15,800 -2,494 Descending Houston Center
10:09 30.4175 -96.2036 117° Southeast 358 412 14,100 -2,419 Descending Houston Center
10:10 30.3639 -96.1761 156° South 350 403 13,300 -1,433 Descending Houston Center
10:10 30.3153 -96.1861 190° South 320 368 12,500 -1,452 Descending Houston Center
10:11 30.2742 -96.1936 189° South 323 372 11,800 -1,393 Descending Houston Center
10:11 30.2347 -96.2025 191° South 317 365 11,200 -774 Descending Houston Center
10:12 30.1875 -96.1947 172° South 316 364 11,000 -197 Descending Houston Center
10:12 30.1531 -96.1803 160° South 305 351 11,000 -97 Level Houston Center
10:13 30.1153 -96.1581 153° Southeast 295 339 10,900  Descending Houston Center
10:13 30.0806 -96.1403 156° South 277 319 11,000  Climbing Houston Center
10:14 30.0456 -96.1211 155° Southeast 279 321 10,900  Descending Houston Center
10:14 30.0014 -96.0983 156° South 275 316 11,000  Climbing Houston Center
10:15 29.9764 -96.0844 154° Southeast 275 316 10,900  Descending Houston Center
10:15 29.9311 -96.0606 155° Southeast 279 321 11,000  Climbing Houston Center
10:16 29.8911 -96.0394 155° Southeast 278 320 10,900  Descending Houston Center
10:16 29.8586 -96.0231 156° South 280 322 11,000  Climbing Houston Center
10:17 29.8192 -96.0003 153° Southeast 281 323 10,900 -590 Descending Houston Center
10:17 29.7858 -95.9833 156° South 280 322 10,400 -1,143 Descending Houston Center
10:18 29.7506 -95.9603 150° Southeast 280 322 9,700 -1,309 Descending Houston Center
10:18 29.7272 -95.9369 139° Southeast 282 325 9,200 -1,258 Descending Houston Center
10:19 29.6914 -95.9047 142° Southeast 276 318 8,400 -1,279 Descending Houston Center
10:19 29.6678 -95.8814 139° Southeast 276 318 7,900 -1,161 Descending Houston Center
10:20 29.6311 -95.8508 144° Southeast 275 316 7,200 -1,065 Descending Houston Center
10:20 29.6064 -95.8283 142° Southeast 272 313 6,800 -871 Descending Houston Center
10:21 29.5747 -95.7978 140° Southeast 265 305 6,300 -449 Descending Houston Center
10:22 29.5900 -95.7097 79° East 252 290 6,000 -234 Descending Houston Center
10:22 29.6003 -95.6897 59° Northeast 250 288 6,000  Level Houston Center
10:23 29.6253 -95.6417 59° Northeast 249 287 6,000 -220 Level Houston Center
10:24 29.6619 -95.5753 58° Northeast 247 284 5,600 -726 Descending Houston Center
10:25 29.7189 -95.5239 38° Northeast 255 293 4,500 -791 Descending Houston Center
10:26 29.7736 -95.4672 42° Northeast 199 229 3,900 -576 Descending Houston Center
10:27 29.7667 -95.4269 101° East 192 221 3,300 -750 Descending Houston Center
10:28 29.7342 -95.3844 131° Southeast 159 183 2,400 -870 Descending Houston Center
10:30 29.6992 -95.3439 135° Southeast 149 171 1,400 -726 Descending Houston Center
10:31 29.6792 -95.3194 133° Southeast 146 168 900 -564 Descending Houston Center
10:32 29.6567 -95.2931 134° Southeast 130 150 300 -581 Descending Houston Center
10:34 29.6454 -95.2789 115° Southeast  Level Estimated